Flight Track Log - Related Links

Times and Time Zones

All times are in EDT time to prevent confusion due to time zone crossing. See the PDT4155 flight status page for this flight to view local times or setup timezone preferences in your user account.

Time Position Orientation Groundspeed Altitude Reporting Facility
EDT Latitude Longitude Course Direction KTS MPH feet Rate Location/Type
Thu 07:09:00 AM 42.0464 -75.9266 180° South  Level Estimated
Thu 07:10:00 AM 41.9924 -75.9090 180° South  Level Estimated
Thu 07:11:00 AM 41.9370 -75.9146 184° South  Level FlightAware Approximate
Thu 07:12:00 AM 41.8815 -75.9201 184° South  Level FlightAware Approximate
Thu 07:13:00 AM 41.8261 -75.9257 184° South  Level FlightAware Approximate
Thu 07:14:00 AM 41.7724 -75.9063 154° Southeast  Level Estimated
Thu 07:15:00 AM 41.7188 -75.8870 160° South  Level Estimated
Thu 07:16:00 AM 41.6651 -75.8677 159° South  Level Estimated
Thu 07:17:00 AM 41.6119 -75.8458 163° South  Level FlightAware Approximate
Thu 07:18:00 AM 41.5588 -75.8241 163° South  Level FlightAware Approximate
Thu 07:19:00 AM 41.5051 -75.8050 153° Southeast  Level Estimated
Thu 07:20:00 AM 41.4514 -75.7860 161° South  Level Estimated
Thu 07:21:00 AM 41.4001 -75.7574 157° South  Level FlightAware Approximate
Thu 07:22:00 AM 41.3488 -75.7289 157° South  Level FlightAware Approximate
Thu 07:23:00 AM 41.2949 -75.7107 162° South  Level Estimated
Thu 07:24:00 AM 41.2427 -75.6851 160° South  Level FlightAware Approximate
Thu 07:25:00 AM 41.1906 -75.6596 160° South  Level FlightAware Approximate
Thu 07:26:00 AM 41.1384 -75.6341 160° South  Level FlightAware Approximate
Thu 07:27:00 AM 41.0863 -75.6087 160° South  Level FlightAware Approximate
Thu 07:28:00 AM 41.0321 -75.5919 159° South  Level Estimated
Thu 07:29:00 AM 40.9780 -75.5753 163° South  Level Estimated
Thu 07:30:00 AM 40.9257 -75.5501 160° South  Level FlightAware Approximate
Thu 07:31:00 AM 40.8735 -75.5251 160° South  Level FlightAware Approximate
Thu 07:32:00 AM 40.8212 -75.5000 160° South  Level FlightAware Approximate
Thu 07:32:58 AM 40.6167 -75.4833 187° South 270 311 5,600  Level Philadelphia TRACON
Thu 07:33:00 AM 40.7690 -75.4750 160° South  Level FlightAware Approximate
Thu 07:34:00 AM 40.7145 -75.4606 190° South  Level Estimated
Thu 07:34:00 AM 40.5596 -75.4915 186° South  Level FlightAware Approximate
Thu 07:34:34 AM 40.5167 -75.5000 186° South 244 281 5,000  Level Philadelphia TRACON
Thu 07:35:00 AM 40.6594 -75.4707 188° South  Level FlightAware Approximate
Thu 07:35:22 AM 40.4667 -75.5000 180° South 233 268 5,100  Level Philadelphia TRACON
Thu 07:36:00 AM 40.6044 -75.4809 188° South  Level FlightAware Approximate
Thu 07:36:22 AM 40.4000 -75.4667 159° South 234 269 4,700  Level Philadelphia TRACON
Thu 07:37:00 AM 40.5493 -75.4910 188° South  Level FlightAware Approximate
Thu 07:37:28 AM 40.3333 -75.4333 159° South 242 278 4,000  Level Philadelphia TRACON
Thu 07:38:00 AM 40.4959 -75.4710 187° South  Level Estimated
Thu 07:38:28 AM 40.2667 -75.4000 159° South 228 262 4,000  Level Philadelphia TRACON
Thu 07:39:28 AM 40.2167 -75.3833 166° South 227 261 4,000  Level Philadelphia TRACON
Thu 07:40:34 AM 40.1500 -75.3500 159° South 228 262 4,000  Level Philadelphia TRACON
Thu 07:41:16 AM 40.1000 -75.3167 153° Southeast 228 262 4,000  Level Philadelphia TRACON
Thu 07:42:29 AM 40.0500 -75.2667 143° Southeast 226 260 4,000  Level Philadelphia TRACON
Thu 07:43:29 AM 40.0000 -75.2167 143° Southeast 230 265 4,000  Level Philadelphia TRACON
Thu 07:44:23 AM 39.9500 -75.1833 153° Southeast 228 262 4,000 -100 Level Philadelphia TRACON
Thu 07:45:29 AM 39.8833 -75.1500 159° South 202 232 3,800 -526 Descending Philadelphia TRACON
Thu 07:46:17 AM 39.8500 -75.1167 142° Southeast 204 235 3,000 -1,000 Descending Philadelphia TRACON
Thu 07:47:35 AM 39.8000 -75.1667 218° Southwest 202 232 1,700 -857 Descending Philadelphia TRACON
Thu 07:48:23 AM 39.8167 -75.2000 303° West 151 174 1,200 -722 Descending Philadelphia TRACON
Thu 07:49:23 AM 39.8500 -75.2167 339° North 130 150 400 -800 Descending Philadelphia TRACON

Login

Don't have an account? Register now (free) for customized features, flight alerts, and more!